Date,TemperatureHighF,TemperatureAvgF,TemperatureLowF,DewpointHighF,DewpointAvgF,DewpointLowF,HumidityHigh,HumidityAvg,HumidityLow,PressureMaxIn,PressureMinIn,WindSpeedMaxMPH,WindSpeedAvgMPH,GustSpeedMaxMPH,PrecipitationSumIn
2013-1-1,29.4,25.4,14.9,26.0,20.8,12.0,90,82,72,30.13,30.02,7,2,11,0.01
2013-1-2,22.4,15.1,8.1,13.0,8.5,4.0,87,75,63,30.21,30.12,9,3,13,0.01
2013-1-3,30.3,23.7,15.3,25.0,17.7,7.0,87,78,70,30.23,30.11,14,5,16,0.00
2013-1-4,28.5,21.5,12.5,23.0,17.0,9.0,91,83,75,30.24,30.16,21,8,27,0.00
2013-1-5,34.3,28.0,21.2,30.0,24.0,19.0,92,85,75,30.26,30.00,14,5,19,0.01
2013-1-6,35.2,30.7,25.2,32.0,26.7,21.0,90,84,79,30.29,29.90,14,6,21,0.01
2013-1-7,34.7,27.0,18.8,26.0,22.4,17.0,94,83,70,30.36,30.12,12,4,21,0.00
2013-1-8,38.6,32.3,27.0,30.0,26.6,23.0,86,79,71,30.20,30.07,9,4,14,0.00
2013-1-9,48.5,41.0,31.5,35.0,30.1,21.0,83,66,43,30.42,30.03,15,6,22,0.00
2013-1-10,39.7,33.6,25.4,37.0,27.7,21.0,95,79,66,30.47,29.98,13,4,18,0.38
2013-1-11,54.1,49.0,38.3,51.0,46.5,37.0,96,91,84,29.98,29.70,13,6,25,0.01
2013-1-12,57.9,51.2,38.6,50.0,46.6,37.0,93,84,71,29.86,29.72,9,4,16,0.44
2013-1-13,38.4,32.0,18.9,37.0,30.2,15.0,96,93,85,30.14,29.71,13,5,20,0.11
2013-1-14,23.1,18.5,13.6,19.0,14.7,10.0,90,85,79,30.44,30.16,11,3,12,0.11
2013-1-15,28.3,21.8,14.4,22.0,18.0,12.0,92,85,75,30.41,30.12,5,1,9,0.01
2013-1-16,34.8,27.8,20.0,27.0,21.5,17.0,93,79,54,30.11,29.86,21,5,25,0.01
2013-1-17,34.1,29.6,22.3,28.0,21.5,13.0,89,72,57,30.34,30.01,17,4,22,0.00
2013-1-18,38.1,28.9,18.8,27.0,20.1,13.0,86,70,59,30.41,29.99,22,7,27,0.02
2013-1-19,47.4,41.8,36.7,36.0,32.5,27.0,79,70,62,29.99,29.71,22,11,30,0.02
2013-1-20,40.9,21.8,17.5,32.0,11.0,7.0,80,64,45,30.22,29.74,17,7,28,0.02
2013-1-21,18.0,12.3,5.6,8.0,2.6,-4.0,83,65,56,30.22,30.08,15,6,21,0.00
2013-1-22,12.6,6.9,1.8,-1.0,-3.7,-6.0,71,63,51,30.36,30.22,13,5,16,0.00
2013-1-23,19.3,14.4,8.5,16.0,5.7,-1.0,89,69,55,30.33,30.09,13,6,22,0.00
2013-1-24,19.1,15.6,10.1,15.0,8.1,5.0,90,73,54,30.60,30.18,10,3,20,0.00
2013-1-25,26.1,21.3,17.7,21.0,15.4,8.0,88,78,64,30.40,29.98,11,4,17,0.00
2013-1-26,25.7,24.1,21.0,21.0,18.5,16.0,84,79,70,30.39,30.06,10,3,16,0.00
2013-1-27,34.4,27.4,22.1,33.0,22.4,17.0,94,81,73,30.40,29.97,13,5,19,0.12
2013-1-28,49.5,44.7,34.7,49.0,43.9,33.0,98,97,94,30.00,29.84,14,5,22,0.09
2013-1-29,57.5,54.8,41.9,56.0,53.9,41.0,99,96,92,29.86,29.30,16,6,22,1.33
2013-1-30,53.7,43.8,26.5,53.0,42.4,23.0,99,94,87,29.45,29.10,19,6,25,0.11
2013-1-31,26.2,17.9,8.8,22.0,12.0,4.0,87,78,68,30.04,29.46,19,8,27,0.11
2013-2-1,15.3,9.3,3.4,10.0,2.8,-2.0,80,75,65,30.35,30.05,13,6,22,0.00
2013-2-2,25.2,19.8,15.8,22.0,17.3,10.0,92,89,78,30.22,29.94,13,4,16,0.00
2013-2-3,21.8,16.3,10.3,17.0,12.0,6.0,88,83,70,30.04,29.92,12,3,18,0.00
2013-2-4,26.3,22.8,17.7,23.0,20.3,14.0,93,89,85,30.04,29.80,8,2,13,0.01
2013-2-5,30.5,25.8,18.5,29.0,23.1,17.0,95,89,76,29.98,29.78,14,3,17,0.01
2013-2-6,34.4,30.6,26.2,27.0,23.5,20.0,84,75,63,30.22,29.99,7,2,12,0.03
2013-2-7,43.5,34.9,29.3,36.0,30.4,26.0,95,84,72,30.14,29.75,9,3,14,0.10
2013-2-8,34.6,32.1,27.7,33.0,26.7,21.0,96,81,68,30.31,29.75,16,6,23,0.11
2013-2-9,35.8,28.6,20.7,26.0,23.4,19.0,93,81,68,30.36,30.12,11,3,15,0.00
2013-2-10,48.9,39.3,31.5,47.0,34.5,24.0,95,83,72,30.11,29.54,14,6,24,0.14
2013-2-11,49.7,36.6,30.5,47.0,28.7,23.0,91,73,66,29.94,29.52,29,11,34,0.15
2013-2-12,32.5,29.3,26.2,25.0,23.1,21.0,85,77,71,30.06,29.90,13,5,18,0.00
2013-2-13,44.6,32.5,20.9,32.0,26.4,19.0,94,79,57,29.91,29.67,12,3,14,0.00
2013-2-14,40.7,36.2,32.8,34.0,30.2,24.0,89,79,62,29.91,29.66,16,6,27,0.00
2013-2-15,32.3,28.7,24.7,27.0,20.9,15.0,88,73,59,30.12,29.90,10,3,16,0.00
2013-2-16,24.5,19.4,14.6,20.0,12.5,5.0,87,75,54,30.12,30.04,17,5,23,0.00
2013-2-17,28.6,20.6,11.6,16.0,10.1,6.0,80,65,43,30.20,30.09,9,3,13,0.00
2013-2-18,52.6,38.9,25.2,44.0,29.8,15.0,91,70,61,30.10,29.41,22,8,34,0.19
2013-2-19,44.5,20.5,14.8,42.0,16.0,9.0,93,82,75,30.07,29.40,23,9,29,0.28
2013-2-20,21.2,16.2,11.0,19.0,12.1,7.0,89,83,77,30.31,30.07,12,5,21,0.00
2013-2-21,26.6,23.6,20.6,21.0,18.9,16.0,89,82,77,30.34,30.02,14,4,24,0.00
2013-2-22,33.5,28.0,21.5,32.0,25.8,19.0,96,91,77,30.02,29.82,15,6,22,0.05
2013-2-23,29.8,27.0,25.1,24.0,20.9,18.0,86,78,66,29.93,29.87,15,6,18,0.02
2013-2-24,36.8,28.1,19.3,24.0,21.1,17.0,90,76,59,30.11,29.92,8,3,11,0.04
2013-2-25,41.0,31.8,21.4,30.0,25.5,20.0,93,79,61,30.16,29.95,9,3,15,0.01
2013-2-26,33.9,32.7,31.2,33.0,29.2,25.0,96,87,71,29.94,29.41,17,6,28,0.75
2013-2-27,33.4,32.4,31.5,33.0,31.7,31.0,97,97,96,29.57,29.41,10,4,14,0.28
2013-2-28,38.2,34.0,31.6,33.0,31.2,28.0,97,90,80,29.93,29.57,15,5,19,0.11
2013-3-1,33.5,30.7,26.3,29.0,25.5,20.0,92,82,67,30.08,29.93,10,4,13,0.00
2013-3-2,32.1,28.0,24.9,23.0,19.9,17.0,81,72,60,30.09,30.03,12,4,19,0.00
2013-3-3,33.4,27.4,21.7,23.0,19.1,14.0,88,72,51,30.07,29.99,13,4,16,0.00
2013-3-4,35.5,27.1,17.9,28.0,20.3,16.0,92,77,56,30.11,29.98,9,2,11,0.00
2013-3-5,32.7,29.9,27.0,29.0,27.4,25.0,96,90,76,30.00,29.69,16,6,17,0.02
2013-3-6,34.4,30.7,26.5,31.0,28.2,25.0,96,90,81,30.21,29.81,11,4,16,0.14
2013-3-7,36.6,32.4,25.6,31.0,28.0,23.0,95,84,66,30.37,30.21,8,3,12,0.22
2013-3-8,38.3,29.6,19.1,25.0,22.5,17.0,93,76,57,30.47,30.34,6,1,10,0.03
2013-3-9,42.6,36.2,28.7,35.0,29.0,22.0,81,75,66,30.33,29.88,12,5,16,0.00
2013-3-10,58.4,50.7,40.8,47.0,40.5,35.0,88,69,56,29.88,29.63,9,4,16,0.07
2013-3-11,52.9,43.3,33.4,49.0,40.7,31.0,96,90,69,29.71,29.47,21,6,25,0.13
2013-3-12,36.0,32.2,30.2,30.0,27.2,24.0,93,82,64,29.92,29.72,15,7,25,0.00
2013-3-13,30.7,26.8,24.3,26.0,19.6,14.0,90,75,54,30.27,29.92,16,7,24,0.00
2013-3-14,40.7,30.5,22.7,30.0,19.8,16.0,90,66,42,30.29,30.08,10,3,16,0.00
2013-3-15,47.3,37.4,29.9,41.0,34.1,28.0,95,88,65,30.09,29.72,8,3,10,0.24
2013-3-16,41.2,35.3,29.5,40.0,32.9,24.0,97,91,78,30.04,29.58,10,5,19,0.01
2013-3-17,35.7,31.0,28.7,24.0,22.9,20.0,79,72,59,30.15,30.00,15,6,21,0.00
2013-3-18,35.3,31.1,27.4,34.0,28.3,21.0,96,89,76,30.00,29.54,21,7,29,0.04
2013-3-19,34.9,26.6,20.4,20.0,15.8,13.0,76,64,49,30.01,29.73,24,9,30,0.00
2013-3-20,28.5,24.0,19.2,17.0,12.1,6.0,89,61,44,30.01,29.94,15,7,20,0.00
2013-3-21,32.7,23.0,15.3,17.0,14.7,11.0,89,72,47,30.00,29.93,12,4,19,0.00
2013-3-22,41.7,30.0,19.4,20.0,17.8,16.0,88,63,39,30.02,29.92,8,2,14,0.00
2013-3-23,40.6,32.1,25.3,25.0,22.9,19.0,86,70,53,30.07,29.94,13,3,14,0.00
2013-3-24,35.7,31.7,28.1,29.0,25.0,23.0,89,77,61,29.95,29.53,16,8,28,0.00
2013-3-25,35.7,31.7,27.7,30.0,28.0,27.0,95,86,71,29.95,29.55,15,5,22,0.07
2013-3-26,37.9,34.6,30.8,31.0,29.1,27.0,92,80,65,30.17,29.95,12,4,18,0.00
2013-3-27,42.6,35.5,29.6,30.0,25.9,21.0,88,70,45,30.25,30.17,15,3,16,0.00
2013-3-28,49.0,37.1,25.7,26.0,23.1,21.0,87,61,33,30.29,30.20,10,2,15,0.00
2013-3-29,52.6,40.5,29.9,30.0,24.8,21.0,89,58,31,30.26,30.15,9,1,15,0.00
2013-3-30,55.0,42.9,27.9,36.0,29.6,24.0,85,62,43,30.18,29.85,9,2,16,0.00
2013-3-31,59.5,49.1,39.6,44.0,36.9,29.0,95,66,37,29.85,29.59,17,5,25,0.01
2013-4-1,39.5,34.5,28.5,29.0,20.7,16.0,75,59,41,30.09,29.74,16,5,22,0.00
2013-4-2,42.4,33.2,24.5,21.0,14.7,6.0,73,50,22,30.24,30.09,16,4,23,0.00
2013-4-3,46.5,34.7,22.1,24.0,16.5,9.0,83,52,23,30.39,30.24,11,2,11,0.00
2013-4-4,56.7,40.7,26.7,26.0,20.9,18.0,77,49,23,30.28,29.91,11,2,12,0.00
2013-4-5,51.9,43.3,32.9,32.0,26.2,20.0,80,53,29,30.12,29.89,11,4,16,0.00
2013-4-6,65.4,49.9,32.7,42.0,32.0,26.0,76,53,36,30.09,29.64,19,7,29,0.00
2013-4-7,62.9,54.8,47.4,47.0,41.7,37.0,84,63,46,29.87,29.58,17,6,34,0.11
2013-4-8,72.0,54.4,43.8,57.0,46.0,36.0,93,74,50,29.89,29.62,19,6,33,0.10
2013-4-9,75.7,60.4,46.8,61.0,51.5,43.0,87,74,55,29.91,29.73,18,5,29,0.00
2013-4-10,56.3,50.3,43.9,53.0,48.1,43.0,96,92,81,29.82,29.70,16,4,21,0.25
2013-4-11,46.1,44.1,41.2,45.0,43.1,40.0,97,96,91,29.74,29.50,16,6,41,2.09
2013-4-12,43.1,39.6,37.0,42.0,35.8,31.0,97,86,74,29.80,29.51,19,7,23,0.09
2013-4-13,44.0,39.1,34.7,35.0,31.4,28.0,92,75,58,29.93,29.80,18,6,22,0.03
2013-4-14,63.2,49.1,37.7,51.0,41.0,33.0,85,74,61,29.96,29.71,16,5,19,0.00
2013-4-15,62.8,58.7,48.7,57.0,52.0,46.0,93,79,66,29.83,29.71,16,5,19,0.01
2013-4-16,52.3,47.0,42.6,46.0,40.3,33.0,95,79,56,30.16,29.82,11,4,15,0.43
2013-4-17,54.9,49.0,44.1,49.0,42.8,36.0,96,79,69,30.18,29.82,16,6,24,1.57
2013-4-18,71.1,59.5,46.9,66.0,57.4,45.0,97,92,82,29.81,29.44,22,7,22,1.13
2013-4-19,52.4,38.8,34.3,50.0,32.9,29.0,95,80,71,29.82,29.42,26,9,33,0.46
2013-4-20,43.6,37.0,32.1,31.0,24.1,16.0,88,62,35,30.38,29.82,14,5,24,0.01
2013-4-21,49.8,39.9,29.5,33.0,25.3,21.0,74,57,40,30.50,30.33,11,4,18,0.00
2013-4-22,63.0,50.4,35.1,40.0,34.0,31.0,85,57,33,30.33,30.03,10,3,16,0.00
2013-4-23,65.9,53.9,40.1,55.0,45.4,39.0,95,74,57,30.03,29.74,13,4,24,0.80
2013-4-24,46.5,39.8,35.0,39.0,33.2,29.0,95,79,52,30.10,29.77,16,5,23,0.22
2013-4-25,49.8,43.7,38.5,36.0,32.8,27.0,80,67,43,30.29,30.06,16,5,22,0.00
2013-4-26,63.1,48.5,33.0,42.0,35.7,30.0,90,64,43,30.35,30.23,13,4,19,0.00
2013-4-29,68.9,65.4,60.0,55.0,53.8,52.0,79,66,58,29.86,29.78,11,5,16,0.00
2013-4-30,79.9,67.7,55.9,63.0,56.9,51.0,85,69,51,29.89,29.80,14,5,21,0.00
2013-5-1,81.5,72.6,61.2,60.0,55.9,52.0,76,58,37,30.05,29.89,12,2,17,0.00
2013-5-2,79.1,68.4,48.5,58.0,54.5,44.0,84,63,43,30.07,29.95,7,3,13,0.00
2013-5-3,75.0,61.4,44.8,62.0,51.2,41.0,89,71,51,30.00,29.84,13,3,18,0.01
2013-5-4,72.4,65.9,59.4,49.0,44.8,39.0,62,48,30,29.90,29.82,14,6,21,0.00
2013-5-5,70.9,62.8,52.1,52.0,47.5,44.0,74,59,42,29.91,29.86,16,4,23,0.00
2013-5-6,73.7,64.6,56.2,55.0,47.4,41.0,65,54,43,29.91,29.83,10,3,16,0.00
2013-5-7,75.5,65.7,54.2,56.0,51.2,45.0,82,61,43,29.93,29.86,9,2,15,0.00
2013-5-8,80.5,67.9,54.7,56.0,51.4,47.0,87,59,34,29.93,29.84,9,2,17,0.00
2013-5-9,78.3,64.0,51.5,60.0,54.4,49.0,93,73,37,29.88,29.77,14,2,20,0.10
2013-5-10,63.6,54.9,42.6,60.0,52.0,41.0,96,90,78,29.84,29.67,15,6,20,0.09
2013-5-11,57.5,46.4,40.5,51.0,41.8,34.0,97,85,60,29.93,29.75,19,4,27,0.07
2013-5-12,52.5,43.8,36.1,36.0,30.6,26.0,87,62,40,30.05,29.93,19,4,23,0.00
2013-5-13,61.6,49.7,35.0,35.0,28.8,20.0,90,50,22,30.11,30.01,10,2,17,0.00
2013-5-14,88.1,68.6,51.5,61.0,45.7,27.0,61,45,27,30.01,29.61,19,5,23,0.00
2013-5-15,83.5,75.6,67.9,62.0,53.8,-99.9,75,51,33,29.70,29.56,15,6,23,0.03
2013-5-16,83.9,70.7,54.9,55.0,47.9,41.0,90,51,23,29.87,29.70,7,1,10,0.00
2013-5-17,81.2,68.6,58.1,63.0,52.6,45.0,84,59,33,29.96,29.86,12,3,19,0.01
2013-5-18,78.6,69.1,58.8,62.0,53.8,42.0,78,58,53,30.00,29.87,9,3,15,0.00
2013-5-19,85.7,74.3,60.0,65.0,60.6,53.0,79,63,46,29.90,29.71,9,2,15,0.00
2013-5-20,75.2,74.2,73.5,67.0,65.5,65.0,77,74,70,29.75,29.73,6,3,11,0.00
2013-5-21,82.8,76.2,65.4,67.0,64.4,62.0,88,68,55,29.69,29.59,16,6,23,0.44
2013-5-22,74.9,68.7,61.7,65.0,62.7,57.0,94,81,62,29.66,29.56,16,4,24,0.18
2013-5-23,61.6,51.6,43.7,59.0,49.0,40.0,95,90,85,30.12,29.65,19,5,20,0.13
2013-5-24,58.8,48.9,38.4,41.0,38.2,36.0,93,69,44,30.32,30.13,9,3,17,0.00
2013-5-25,65.4,52.5,39.1,49.0,41.3,37.0,93,68,41,30.32,30.18,8,1,12,0.00
2013-5-26,69.4,58.8,44.6,53.0,43.6,40.0,91,61,36,30.23,30.08,10,3,15,0.00
2013-5-27,60.8,56.3,49.9,59.0,53.3,48.0,97,90,71,30.09,29.81,14,4,19,1.04
2013-5-28,79.3,69.8,57.6,70.0,65.1,57.0,98,85,70,29.84,29.70,17,5,27,0.69
2013-5-29,83.5,73.3,62.5,69.0,65.3,61.0,96,77,57,29.89,29.76,11,4,18,0.05
2013-5-30,84.6,77.2,70.0,70.0,66.3,63.0,82,70,56,29.91,29.77,18,5,27,0.00
2013-5-31,76.6,70.4,65.0,69.0,65.4,63.0,95,84,74,29.84,29.70,17,5,29,0.90
2013-6-1,72.9,68.1,63.5,67.0,63.8,62.0,97,86,73,29.75,29.62,17,5,41,0.93
2013-6-2,66.0,58.2,47.6,60.0,52.6,42.0,92,82,69,29.94,29.62,14,5,19,0.01
2013-6-3,68.2,55.5,42.8,50.0,43.9,41.0,94,68,44,30.04,29.95,13,2,14,0.00
2013-6-4,72.5,61.7,47.1,51.0,47.4,45.0,92,62,39,30.09,30.00,13,2,13,0.00
2013-6-5,76.2,67.6,56.5,55.0,50.0,43.0,66,54,43,30.02,29.82,10,3,13,0.00
2013-6-6,75.1,64.8,58.9,56.0,50.4,42.0,76,60,46,29.84,29.73,12,4,14,0.00
2013-6-7,72.4,63.8,55.9,56.0,53.2,48.0,88,70,51,29.82,29.76,9,2,12,0.00
2013-6-8,76.7,65.7,53.5,57.0,52.9,47.0,87,65,45,29.92,29.81,8,1,10,0.00
2013-6-9,81.1,71.4,62.3,64.0,59.7,55.0,93,68,43,29.93,29.75,9,3,17,0.41
2013-6-10,75.5,68.3,63.6,67.0,64.3,61.0,97,87,66,29.77,29.65,13,3,15,0.87
2013-6-11,84.0,70.7,60.2,67.0,63.4,60.0,98,80,51,29.85,29.73,11,2,13,0.02
2013-6-12,85.9,74.3,66.8,77.0,70.2,65.0,97,87,72,29.81,29.50,12,2,17,2.29
2013-6-13,74.5,67.1,57.8,67.0,58.8,53.0,97,77,50,29.90,29.42,19,5,23,0.08
2013-6-14,79.8,65.8,53.4,61.0,56.6,52.0,94,74,44,30.02,29.89,8,2,15,0.00
2013-6-15,74.0,66.4,59.4,65.0,62.1,58.0,94,86,69,29.99,29.82,8,2,12,0.11
2013-6-16,81.0,73.1,65.9,69.0,66.6,63.0,93,80,65,29.83,29.78,11,4,18,0.06
2013-6-17,86.3,75.8,65.8,68.0,63.6,56.0,96,69,36,29.85,29.76,8,2,14,0.00
2013-6-18,76.2,69.5,63.4,63.0,60.3,55.0,90,73,57,29.94,29.77,11,4,14,0.00
2013-6-19,78.1,67.5,56.0,55.0,51.3,48.0,74,58,38,30.06,29.93,7,2,10,0.00
2013-6-20,82.2,71.6,59.8,67.0,60.6,53.0,82,69,53,30.10,30.01,5,1,8,0.00
2013-6-21,86.1,74.5,68.5,69.0,64.5,60.0,91,72,46,30.08,29.85,9,3,21,0.07
2013-6-22,86.3,75.0,67.5,75.0,68.9,65.0,92,82,61,30.00,29.88,8,3,15,0.00
2013-6-23,85.7,76.1,66.8,72.0,67.6,64.0,91,76,57,29.98,29.88,12,4,16,0.00
2013-6-24,83.9,73.7,65.5,73.0,67.7,64.0,95,82,61,29.99,29.83,10,4,30,1.12
2013-6-25,87.5,75.9,66.3,76.0,70.3,65.0,95,83,64,29.89,29.70,16,4,30,0.07
2013-6-26,78.6,70.5,65.2,74.0,67.7,64.0,97,91,81,29.83,29.63,9,2,14,2.99
2013-6-27,87.1,74.2,66.6,74.0,68.9,66.0,98,85,62,29.69,29.57,10,2,28,0.02
2013-6-28,81.1,72.9,66.5,66.0,64.1,61.0,92,75,53,29.58,29.48,11,4,19,0.00
2013-6-29,77.9,66.6,62.8,65.0,63.0,60.0,96,88,62,29.62,29.46,11,2,18,0.10
2013-6-30,77.7,67.4,62.1,66.0,61.8,60.0,97,83,61,29.84,29.62,10,4,16,0.25
2013-7-1,75.3,66.5,59.1,62.0,55.6,48.0,81,68,51,29.94,29.83,18,5,22,0.00
2013-7-2,65.1,62.3,57.3,63.0,58.2,53.0,96,87,65,29.95,29.90,10,3,15,0.40
2013-7-3,75.9,69.5,63.7,66.0,64.3,63.0,98,84,68,29.99,29.91,9,3,17,0.01
2013-7-4,77.1,69.4,59.2,66.0,62.5,58.0,98,80,60,30.05,29.97,6,1,9,0.00
2013-7-5,81.8,73.2,64.0,69.0,66.4,63.0,96,80,61,30.03,29.93,8,1,10,0.00
2013-7-6,78.3,72.6,68.3,71.0,68.2,66.0,94,86,76,29.99,29.90,7,2,12,0.00
2013-7-7,82.3,73.9,66.5,72.0,68.8,65.0,96,84,65,29.96,29.88,10,3,14,0.00
2013-7-8,81.8,75.9,70.7,75.0,70.8,69.0,94,84,76,29.97,29.86,15,4,16,0.24
2013-7-9,84.9,79.0,73.1,77.0,74.5,71.0,97,86,74,29.91,29.79,11,4,16,0.00
2013-7-10,80.7,75.4,62.7,76.0,70.2,58.0,95,84,61,29.89,29.73,10,3,35,0.91
2013-7-11,79.3,68.5,57.7,64.0,57.2,53.0,95,71,45,29.99,29.89,15,3,15,0.00
2013-7-12,80.9,70.3,57.7,62.0,58.1,55.0,93,68,44,30.05,29.97,8,2,12,0.00
2013-7-13,83.1,72.5,59.6,68.0,63.3,57.0,92,74,55,30.07,30.01,10,2,13,0.00
2013-7-14,88.1,77.7,65.7,74.0,69.2,64.0,95,76,56,30.11,30.05,8,2,11,0.00
2013-7-15,89.8,80.7,72.2,76.0,73.4,70.0,95,79,61,30.18,30.10,9,2,12,0.00
2013-7-16,90.8,82.3,73.2,75.0,72.7,71.0,93,74,55,30.23,30.15,8,2,11,0.00
2013-7-17,91.5,82.9,73.0,76.0,73.3,71.0,93,74,56,30.22,30.07,8,2,11,0.00
2013-7-18,91.9,83.3,74.1,77.0,74.3,72.0,93,75,56,30.09,29.88,10,2,13,0.00
2013-7-19,92.0,83.6,76.1,77.0,74.4,73.0,90,75,57,29.89,29.68,17,6,21,0.07
2013-7-20,89.0,81.3,73.8,75.0,69.0,63.0,94,68,44,29.81,29.67,13,3,16,0.02
2013-7-21,85.4,76.7,66.1,71.0,65.9,63.0,90,70,50,29.88,29.76,7,2,10,0.00
2013-7-22,83.4,74.2,66.3,71.0,67.9,65.0,96,81,61,29.79,29.66,8,2,15,0.78
2013-7-23,80.4,72.1,60.5,69.0,64.6,54.0,93,78,62,29.82,29.61,14,5,21,0.00
2013-7-24,73.3,62.9,52.6,56.0,51.7,49.0,88,69,48,29.95,29.82,9,3,14,0.00
2013-7-25,79.2,66.9,54.3,60.0,55.8,52.0,94,70,45,30.02,29.95,8,1,9,0.00
2013-7-26,74.2,67.8,61.1,65.0,59.9,56.0,85,76,64,29.99,29.81,8,3,19,0.02
2013-7-27,71.8,65.7,57.2,65.0,60.1,51.0,95,82,67,29.82,29.74,11,4,20,0.02
2013-7-28,67.7,58.7,51.9,54.0,50.6,48.0,90,76,53,29.94,29.79,11,4,15,0.02
2013-7-29,74.0,63.1,53.8,59.0,54.3,50.0,87,74,58,30.10,29.94,8,3,17,0.00
2013-7-30,75.7,66.9,55.0,64.0,58.9,53.0,95,77,56,30.12,30.00,7,1,9,0.00
2013-7-31,69.5,66.6,63.8,68.0,64.9,62.0,97,94,83,30.01,29.85,5,1,9,0.24
2013-8-1,79.2,69.3,61.7,66.0,60.0,55.0,98,76,44,29.89,29.84,10,2,16,0.00
2013-8-2,82.7,65.4,58.6,72.0,62.4,56.0,97,90,71,29.90,29.73,9,2,16,2.06
2013-8-3,78.8,69.1,62.8,67.0,60.4,52.0,99,77,44,30.00,29.85,10,2,17,0.01
2013-8-4,76.2,66.2,55.2,60.0,55.4,50.0,96,71,42,30.10,29.99,11,2,14,0.00
2013-8-5,73.2,66.5,56.8,63.0,58.5,53.0,88,76,65,30.04,29.84,11,2,15,0.00
2013-8-6,78.4,70.0,62.5,70.0,65.6,60.0,95,86,74,29.85,29.78,8,2,14,0.07
2013-8-7,83.3,73.3,68.7,74.0,69.9,67.0,98,89,70,29.82,29.73,10,3,13,0.54
2013-8-8,78.8,71.0,64.0,68.0,65.5,62.0,97,83,68,29.90,29.81,9,3,13,0.01
2013-8-9,80.6,71.7,63.1,66.0,61.3,57.0,89,71,49,29.93,29.86,7,1,9,0.00
2013-8-10,81.4,73.1,66.5,68.0,64.4,60.0,93,75,55,30.02,29.93,9,2,12,0.00
2013-8-11,81.3,71.9,58.7,65.0,60.0,57.0,93,68,47,30.03,29.95,8,1,12,0.00
2013-8-12,82.0,73.0,65.6,69.0,65.5,62.0,92,78,61,29.97,29.75,10,3,13,0.02
2013-8-13,68.3,64.1,56.9,65.0,54.4,47.0,96,73,48,30.03,29.79,14,4,20,0.01
2013-8-14,70.1,60.0,50.4,51.0,49.1,46.0,87,69,48,30.13,30.03,8,2,13,0.00
2013-8-15,74.8,61.6,48.1,58.0,52.3,47.0,95,74,48,30.11,30.02,6,1,8,0.00
2013-8-16,76.9,67.8,58.4,59.0,56.6,51.0,93,70,42,30.09,30.04,7,1,11,0.00
2013-8-17,77.0,66.9,55.1,60.0,56.9,53.0,95,73,46,30.16,30.06,10,2,13,0.00
2013-8-18,81.3,69.8,57.0,64.0,59.4,55.0,93,72,46,30.12,30.00,6,1,9,0.00
2013-8-19,84.0,71.5,59.5,66.0,62.3,58.0,94,75,48,30.04,29.95,8,1,10,0.00
2013-8-20,83.6,73.8,63.2,68.0,65.3,62.0,94,77,55,30.06,29.97,8,1,11,0.00
2013-8-21,86.1,76.5,67.3,71.0,67.4,65.0,91,74,51,30.03,29.90,8,2,12,0.00
2013-8-22,75.9,71.2,66.7,70.0,67.5,65.0,96,88,76,30.02,29.87,9,3,18,0.18
2013-8-23,81.3,72.0,64.7,67.0,62.5,55.0,96,75,42,30.07,29.98,8,2,12,0.00
2013-8-24,81.9,69.3,55.8,61.0,56.6,54.0,93,67,39,30.20,30.08,9,2,12,0.00
2013-8-25,86.1,72.6,58.4,67.0,61.7,56.0,92,71,48,30.20,30.07,9,2,12,0.00
2013-8-26,86.7,76.5,67.0,72.0,67.5,61.0,84,74,58,30.11,29.93,11,3,14,0.00
2013-8-27,90.1,80.1,73.1,77.0,71.9,69.0,89,77,58,29.94,29.78,13,5,17,0.00
2013-8-28,83.4,78.1,71.3,75.0,71.3,67.0,95,80,72,29.92,29.75,13,5,15,0.00
2013-8-29,87.9,76.4,66.6,71.0,68.7,66.0,99,79,51,29.98,29.89,6,1,9,0.00
2013-8-30,90.2,77.9,66.8,76.0,70.2,65.0,95,79,58,29.89,29.66,17,3,20,0.04
2013-8-31,77.4,72.6,68.5,72.0,69.9,67.0,96,91,82,29.75,29.64,6,1,15,0.12
2013-9-1,81.4,72.8,66.5,73.0,69.5,66.0,98,89,74,29.71,29.64,10,2,12,0.01
2013-9-2,77.9,71.3,61.3,70.0,63.4,56.0,94,78,57,29.87,29.66,11,4,15,0.00
2013-9-3,74.2,63.8,54.2,58.0,55.4,52.0,92,76,54,29.99,29.87,7,2,12,0.00
2013-9-4,81.4,66.8,53.6,61.0,57.0,52.0,95,74,42,30.05,29.96,7,2,13,0.01
2013-9-5,79.3,67.3,58.6,59.0,54.6,47.0,92,67,41,30.15,30.02,8,2,13,0.00
2013-9-6,80.1,66.7,51.0,64.0,54.5,47.0,86,66,49,30.16,29.96,9,1,10,0.00
2013-9-7,85.9,73.3,62.6,68.0,63.0,56.0,88,71,48,29.97,29.81,10,2,13,0.00
2013-9-8,76.0,70.9,66.1,68.0,66.1,63.0,92,85,76,29.93,29.83,11,3,15,0.00
2013-9-9,90.9,76.3,64.7,75.0,68.1,59.0,90,77,59,29.91,29.76,14,3,14,0.00
2013-9-10,94.7,83.8,74.0,74.0,70.1,65.0,90,66,39,29.94,29.81,11,4,16,0.00
2013-9-11,93.7,80.5,72.6,72.0,69.9,66.0,90,72,41,29.96,29.83,13,5,20,0.03
2013-9-12,81.7,71.4,60.9,69.0,62.0,53.0,96,75,44,29.92,29.75,11,3,23,0.29
2013-9-13,63.9,57.9,51.0,53.0,45.4,43.0,81,64,47,30.05,29.93,13,4,18,0.00
2013-9-14,68.0,55.2,42.4,47.0,43.1,39.0,95,68,37,30.14,30.00,6,1,9,0.00
2013-9-15,65.9,57.1,48.9,57.0,50.0,43.0,95,78,60,30.04,29.93,7,2,12,0.05
2013-9-16,69.3,59.3,52.6,56.0,51.9,47.0,96,79,48,30.24,30.04,7,2,9,0.00
2013-9-17,68.8,57.3,45.1,53.0,48.7,43.0,94,75,55,30.28,30.09,9,2,11,0.00
2013-9-18,79.7,67.4,56.4,66.0,56.9,48.0,93,70,55,30.09,29.88,8,2,14,0.14
2013-9-19,71.9,67.9,64.4,70.0,66.6,64.0,98,95,89,29.94,29.77,9,4,14,0.86
2013-9-20,73.1,70.4,64.1,71.0,67.5,59.0,95,90,82,29.79,29.67,10,4,12,0.00
2013-9-21,66.3,60.0,54.0,58.0,51.5,47.0,95,75,53,29.83,29.66,15,4,21,0.00
2013-9-22,65.7,56.9,49.0,51.0,47.2,45.0,93,72,50,29.97,29.83,9,2,12,0.00
2013-9-23,67.9,54.8,42.5,49.0,45.6,41.0,93,74,48,30.05,29.95,9,2,12,0.00
2013-9-24,69.3,56.8,45.2,50.0,47.1,43.0,93,72,46,30.02,29.84,10,2,12,0.00
2013-9-25,74.2,59.6,48.7,54.0,50.0,47.0,95,73,41,29.89,29.80,8,2,12,0.00
2013-9-26,78.0,61.4,47.5,56.0,50.3,46.0,96,71,35,30.01,29.88,8,1,11,0.00
2013-9-27,77.6,63.7,47.1,55.0,49.1,44.0,89,62,31,30.11,29.99,9,2,15,0.00
2013-9-28,80.5,66.8,52.5,58.0,54.6,50.0,92,68,44,30.06,29.88,9,3,18,0.00
2013-9-29,69.1,63.4,52.5,61.0,55.4,50.0,94,76,57,29.92,29.85,10,3,13,0.13
2013-9-30,71.9,58.4,45.4,57.0,51.8,44.0,95,80,57,29.93,29.81,9,1,17,0.00
2013-10-1,74.4,65.2,59.5,64.0,61.3,55.0,97,87,71,29.93,29.83,12,4,17,0.00
2013-10-2,81.2,71.0,64.1,68.0,64.9,63.0,97,82,59,29.99,29.89,6,2,11,0.00
2013-10-3,77.2,68.1,63.8,69.0,65.4,62.0,98,91,71,29.92,29.79,8,2,22,0.94
2013-10-4,81.2,71.7,64.9,72.0,67.4,63.0,93,86,71,29.90,29.83,8,2,12,0.01
2013-10-5,77.3,69.7,66.2,72.0,67.7,65.0,97,93,82,29.89,29.70,9,2,23,0.62
2013-10-6,67.4,58.5,46.7,67.0,53.8,41.0,97,85,61,29.74,29.59,12,4,17,0.32
2013-10-7,62.3,50.1,44.2,49.0,44.1,41.0,91,80,50,30.04,29.68,14,4,16,0.00
2013-10-8,73.9,58.3,46.3,52.0,47.8,44.0,94,71,43,30.15,30.04,7,2,14,0.00
2013-10-9,70.8,57.8,44.1,50.0,45.9,42.0,93,68,39,30.18,30.06,8,1,12,0.00
2013-10-10,74.3,58.9,45.2,54.0,48.6,44.0,94,71,41,30.11,29.98,6,1,10,0.00
2013-10-11,74.9,60.4,45.4,52.0,48.0,44.0,94,68,38,30.03,29.90,7,1,10,0.00
2013-10-12,76.8,64.6,51.4,63.0,55.1,49.0,93,73,51,30.03,29.91,10,2,15,0.02
2013-10-13,64.9,55.3,44.0,58.0,45.5,40.0,95,72,43,30.30,30.04,10,2,15,0.01
2013-10-14,65.2,51.9,41.1,47.0,43.3,39.0,94,75,47,30.32,30.12,9,2,13,0.01
2013-10-15,63.8,56.5,47.9,62.0,53.3,44.0,96,89,79,30.12,29.75,12,4,17,0.19
2013-10-16,62.3,50.9,44.6,60.0,46.4,42.0,93,85,79,29.87,29.76,16,4,18,0.00
2013-10-17,50.5,48.2,41.8,47.0,45.1,40.0,94,88,81,29.86,29.75,9,3,16,0.09
2013-10-18,58.9,46.3,39.9,47.0,41.4,38.0,95,84,61,29.90,29.81,13,3,20,0.01
2013-10-19,51.8,44.1,41.3,41.0,39.8,34.0,94,85,51,29.87,29.74,12,3,20,0.06
2013-10-20,62.1,59.0,55.6,44.0,43.7,43.0,64,57,52,29.77,29.73,14,7,21,0.00
2013-10-21,56.4,49.0,36.8,46.0,40.0,27.0,86,72,61,29.89,29.75,15,6,25,0.00
2013-10-22,46.3,37.0,31.4,34.0,28.7,22.0,93,74,39,29.94,29.85,7,3,16,0.05
2013-10-23,43.6,38.2,35.4,37.0,32.8,26.0,95,82,55,29.95,29.80,10,3,19,0.08
2013-10-24,44.2,37.3,31.5,32.0,28.4,25.0,90,71,48,30.21,29.94,13,4,18,0.00
2013-10-25,49.2,39.2,30.8,30.0,27.7,26.0,85,65,42,30.35,30.10,14,4,20,0.00
2013-10-26,53.9,44.5,37.8,38.0,32.4,27.0,83,63,54,30.10,29.78,19,7,25,0.00
2013-10-27,54.3,42.1,30.5,34.0,31.3,29.0,92,69,40,30.03,29.92,9,2,15,0.00
2013-10-28,58.5,43.4,31.5,40.0,35.0,29.0,93,75,45,30.27,30.00,5,1,9,0.00
2013-10-29,54.2,44.3,33.9,42.0,37.8,31.0,92,79,58,30.31,30.12,9,3,11,0.00
2013-10-30,61.8,52.6,40.7,61.0,49.1,38.0,98,88,75,30.11,29.79,13,2,15,0.55
2013-10-31,63.5,60.2,51.5,62.0,58.8,50.0,98,95,93,29.78,29.15,15,7,28,1.74
2013-11-1,51.2,47.4,44.4,50.0,42.8,40.0,95,84,69,29.65,29.22,16,6,31,0.08
2013-11-2,45.8,43.9,40.9,44.0,41.5,38.0,96,91,78,30.03,29.64,11,3,17,0.08
2013-11-3,48.5,42.8,38.9,40.0,38.3,36.0,96,84,67,30.27,30.03,9,3,15,0.02
2013-11-4,53.6,46.4,39.1,43.0,38.6,36.0,87,74,59,30.28,30.14,16,5,19,0.00
2013-11-5,56.2,52.5,49.6,49.0,45.5,43.0,86,77,69,30.25,30.00,11,4,22,0.00
2013-11-6,57.0,51.0,41.5,53.0,47.1,37.0,95,87,66,30.01,29.76,17,8,24,0.45
2013-11-7,45.8,39.1,32.3,38.0,30.9,26.0,87,73,51,30.18,30.01,14,4,20,0.00
2013-11-8,46.9,38.5,30.3,34.0,30.8,28.0,93,75,55,30.28,30.05,11,3,15,0.00
2013-11-9,60.4,50.4,43.5,42.0,37.2,31.0,74,61,48,30.04,29.81,20,8,27,0.00
2013-11-10,46.2,40.3,33.8,38.0,30.6,26.0,87,69,55,30.24,29.96,23,5,29,0.00
2013-11-11,46.7,38.7,28.7,39.0,32.2,24.0,93,78,65,30.33,30.02,13,5,21,0.18
2013-11-12,31.2,27.6,24.0,28.0,23.2,18.0,91,83,73,30.59,30.34,8,2,17,0.03
2013-11-13,36.9,28.1,19.5,22.0,19.0,16.0,86,70,51,30.57,30.22,17,6,22,0.01
2013-11-14,51.5,39.5,30.2,27.0,23.3,20.0,71,54,36,30.21,29.95,16,8,24,0.00
2013-11-15,51.2,45.3,39.8,34.0,29.4,25.0,69,54,45,29.99,29.92,16,5,19,0.00
2013-11-16,57.6,49.9,40.7,56.0,46.2,34.0,94,87,70,29.95,29.63,14,6,24,0.16
2013-11-17,63.8,57.4,45.0,61.0,53.9,38.0,94,88,71,29.63,29.14,28,9,36,0.76
2013-11-18,44.5,40.1,36.0,38.0,32.2,28.0,85,74,60,30.15,29.62,16,7,25,0.00
2013-11-19,42.5,36.7,32.8,30.0,28.0,26.0,79,71,59,30.31,30.16,8,2,15,0.00
2013-11-20,42.9,36.6,29.5,35.0,29.1,25.0,84,75,61,30.30,30.10,14,4,18,0.00
2013-11-21,46.5,45.0,41.5,46.0,41.6,35.0,97,88,76,30.17,30.10,8,2,17,0.54
2013-11-22,46.4,39.2,29.4,46.0,36.9,27.0,97,91,82,30.38,30.10,18,4,24,0.04
2013-11-23,29.8,24.8,20.6,27.0,20.5,15.0,92,84,69,30.58,30.33,15,5,26,0.00
2013-11-24,25.5,20.8,15.5,17.0,11.7,4.0,89,70,40,30.65,30.42,9,4,13,0.00
2013-11-25,30.4,26.0,20.4,26.0,17.5,8.0,90,71,57,30.42,30.10,17,7,22,0.00
2013-11-26,33.5,29.6,26.2,29.0,25.8,23.0,92,85,78,30.10,29.94,11,4,19,0.00
2013-11-27,26.8,24.3,21.9,25.0,20.9,15.0,94,87,70,30.21,29.98,12,4,19,0.03
2013-11-28,34.6,25.9,21.1,21.0,17.0,14.0,82,69,54,30.41,30.17,10,3,17,0.02
2013-11-29,35.2,30.0,24.7,24.0,21.4,19.0,81,71,59,30.60,30.42,8,2,10,0.01
2013-11-30,48.7,37.5,29.5,32.0,27.5,23.0,81,68,52,30.43,30.04,10,4,18,0.01
2013-12-1,43.9,37.1,29.2,37.0,30.9,27.0,92,79,64,30.04,29.94,6,2,11,0.00
2013-12-2,38.6,33.5,27.8,33.0,29.8,26.0,93,86,74,29.93,29.77,8,2,11,0.04
2013-12-3,48.9,41.8,33.9,46.0,40.1,32.0,95,94,91,29.77,29.67,9,4,13,0.12
2013-12-4,59.7,51.3,44.7,57.0,49.7,43.0,98,94,90,29.73,29.51,15,5,18,0.00
2013-12-5,58.9,33.4,25.1,56.0,27.7,19.0,90,80,72,30.16,29.55,16,6,23,0.00
2013-12-6,26.5,25.1,22.5,21.0,18.8,14.0,80,77,70,30.42,30.14,12,4,14,0.00
2013-12-7,22.8,19.5,14.6,15.0,12.4,11.0,86,74,63,30.62,30.42,10,4,15,0.00
2013-12-8,25.7,21.4,14.7,24.0,16.8,11.0,94,83,66,30.54,29.93,14,5,19,0.00
2013-12-9,27.2,21.7,12.8,25.0,16.7,5.0,94,81,68,30.18,29.91,21,6,22,0.00
2013-12-10,23.8,13.7,2.5,13.0,5.6,-3.0,81,70,60,30.28,30.04,20,6,26,0.00
2013-12-11,22.7,16.7,6.3,18.0,11.1,-1.0,90,79,65,30.49,30.27,13,4,18,0.00
2013-12-12,21.3,9.9,-3.1,12.0,2.3,-7.0,83,72,58,30.52,30.25,15,5,22,0.00
2013-12-13,28.1,22.4,15.1,26.0,15.8,9.0,93,76,66,30.24,30.10,10,3,12,0.01
2013-12-14,27.3,24.5,21.2,26.0,23.1,19.0,95,94,91,30.12,29.79,12,4,15,0.00
2013-12-15,25.5,16.4,10.0,24.0,13.2,6.0,93,87,81,30.09,29.88,13,5,22,0.00
2013-12-16,20.2,15.8,10.6,18.0,12.7,7.0,93,87,78,30.15,30.00,8,2,10,0.00
2013-12-17,29.6,22.1,16.3,26.0,19.7,15.0,94,90,80,30.05,29.94,10,5,21,0.00
2013-12-18,37.5,23.8,15.2,27.0,16.7,12.0,89,75,61,30.18,29.87,14,5,19,0.01
2013-12-19,43.1,40.2,37.6,41.0,35.2,27.0,94,82,66,29.93,29.77,15,5,22,0.30
2013-12-20,45.5,42.5,35.6,45.0,41.7,35.0,98,97,92,29.77,29.63,10,2,12,0.44
2013-12-21,35.4,34.2,33.3,35.0,33.8,32.0,98,98,96,29.77,29.49,15,4,18,0.95
2013-12-22,35.8,33.2,29.2,34.0,32.0,28.0,97,95,92,30.01,29.44,14,5,20,0.16
2013-12-23,29.1,21.6,5.2,28.0,17.6,1.0,94,84,69,30.39,30.01,12,6,19,0.00
2013-12-24,17.8,9.2,1.4,13.0,4.4,-3.0,86,81,73,30.55,30.39,11,4,14,0.00
2013-12-25,26.6,22.6,17.0,25.0,18.6,13.0,94,84,76,30.44,30.08,15,5,18,0.00
2013-12-26,33.2,25.8,16.8,27.0,21.1,13.0,95,82,72,30.28,30.06,12,5,21,0.00
2013-12-27,41.7,35.5,28.7,33.0,30.0,26.0,90,80,70,30.28,30.10,13,6,22,0.01
2013-12-28,48.6,41.2,35.6,37.0,33.4,31.0,84,74,63,30.09,29.84,18,6,23,0.00
2013-12-29,39.2,33.1,22.0,32.0,28.0,19.0,91,82,71,30.04,29.72,15,6,22,0.00
2013-12-30,21.8,16.9,13.6,19.0,11.1,9.0,87,78,70,30.26,30.05,11,5,20,0.00
2013-12-31,16.2,13.1,7.5,13.0,9.2,4.0,90,84,71,30.35,30.13,12,3,16,0.00
2014-1-1,19.8,17.1,13.2,16.0,14.4,11.0,91,89,84,30.28,30.12,11,5,16,0.00
2014-1-2,14.7,12.7,6.8,12.0,9.1,1.0,91,85,72,30.35,30.02,15,7,20,0.00